Vero Beach, FL

3:13 AM EST on January 20, 2017 (GMT -0500)
Vero Beach Municipal

Weather History for KVRB - August, 2014

Change the Weather History Date:

Friday, August 22, 2014

  Actual Average Record
Temperature  
Mean Temperature 83 °F 82 °F  
Max Temperature 91 °F 90 °F 95 °F (1993)
Min Temperature 74 °F 74 °F 67 °F (1984)
Degree Days  
Heating Degree Days 0 0  
Month to date heating degree days 0 0  
Since 1 June heating degree days 0 0  
Since 1 July heating degree days 0 0  
Cooling Degree Days 18 17  
Month to date cooling degree days 372 374  
Year to date cooling degree days 2220 2154  
Since 1 June cooling degree days 1294 1348  
Growing Degree Days 32 (Base 50)    
Moisture  
Dew Point 73 °F    
Average Humidity 75    
Maximum Humidity 94    
Minimum Humidity 56    
Precipitation  
Precipitation 0.00 in 0.24 in 3.22 in (1998)
Month to date precipitation 4.88 4.86  
Year to date precipitation 31.90 32.53  
Sea Level Pressure  
Sea Level Pressure 30.05 in    
Wind  
Wind Speed 6 mph (SE)    
Max Wind Speed 13 mph    
Max Gust Speed 16 mph    
Visibility 10 miles    
Events      
T = Trace of Precipitation, MM = Missing Value Source: NWS Daily Summary

Daily Weather History Graph

Daily Weather History Graph

Search for Another Location

Airport or City:

Trip Planner

Search our weather history database for the weather conditions in past years. The results will help you decide how hot, cold, wet, or windy it might be!

Date:

Astronomy

Aug. 22, 2014 Rise Set
Actual Time 6:55 AM EDT 7:52 PM EDT
Civil Twilight 6:31 AM EDT 8:17 PM EDT
Nautical Twilight 6:03 AM EDT 8:45 PM EDT
Astronomical Twilight 5:33 AM EDT 9:14 PM EDT
Moon 4:23 AM EDT (8/22) 5:55 PM EDT (8/22)
Length of Visible Light 13h 45m
Length of Day
12h 57m
Waning Crescent, 8% of the Moon is Illuminated
Aug 22
Waning Crescent
Aug 25
New
Sep 2
First Quarter
Sep 8
Full
Sep 15
Last Quarter

Hourly Weather History & Observations

Time (EDT) Temp. Heat Index Dew Point Humidity Pressure Visibility Wind Dir Wind Speed Gust Speed Precip Events Conditions
12:53 AM 79.0 °F - 75.9 °F 90% 30.10 in 10.0 mi SSE 4.6 mph - N/A   Clear
1:53 AM 78.1 °F - 73.9 °F 87% 30.09 in 10.0 mi SSW 3.5 mph - N/A   Clear
2:53 AM 78.1 °F - 75.0 °F 90% 30.07 in 10.0 mi SSW 4.6 mph - N/A   Clear
3:53 AM 77.0 °F - 70.0 °F 79% 30.05 in 10.0 mi SSW 3.5 mph - N/A   Clear
4:53 AM 77.0 °F - 73.9 °F 90% 30.04 in 10.0 mi South 3.5 mph - N/A   Clear
5:53 AM 75.0 °F - 73.0 °F 94% 30.06 in 10.0 mi WNW 3.5 mph - N/A   Scattered Clouds
6:53 AM 73.9 °F - 72.0 °F 93% 30.07 in 10.0 mi Calm Calm - N/A   Clear
7:53 AM 77.0 °F - 75.0 °F 94% 30.08 in 10.0 mi Calm Calm - N/A   Clear
8:53 AM 82.0 °F 88.6 °F 75.0 °F 79% 30.08 in 10.0 mi SSW 5.8 mph - N/A   Clear
9:53 AM 84.9 °F 92.1 °F 73.9 °F 69% 30.09 in 10.0 mi WSW 3.5 mph - N/A   Clear
10:53 AM 87.1 °F 94.5 °F 73.0 °F 63% 30.09 in 10.0 mi Calm Calm - N/A   Scattered Clouds
11:53 AM 88.0 °F 95.6 °F 73.0 °F 61% 30.09 in 10.0 mi Variable 3.5 mph - N/A   Scattered Clouds
12:28 PM 87.1 °F 95.4 °F 73.9 °F 65% 30.08 in 10.0 mi East 5.8 mph - N/A   Overcast
12:53 PM 89.1 °F 97.0 °F 73.0 °F 59% 30.07 in 10.0 mi East 8.1 mph - N/A   Mostly Cloudy
1:53 PM 90.0 °F 96.4 °F 71.1 °F 54% 30.05 in 10.0 mi East 9.2 mph - N/A   Mostly Cloudy
2:53 PM 90.0 °F 96.4 °F 71.1 °F 54% 30.04 in 10.0 mi ENE 10.4 mph - N/A   Clear
3:53 PM 89.1 °F 96.0 °F 72.0 °F 57% 30.03 in 10.0 mi ENE 11.5 mph - N/A   Clear
4:53 PM 88.0 °F 94.7 °F 72.0 °F 59% 30.01 in 10.0 mi East 10.4 mph - N/A   Clear
5:53 PM 87.1 °F 94.5 °F 73.0 °F 63% 30.01 in 10.0 mi East 10.4 mph - N/A   Clear
6:53 PM 84.9 °F 91.4 °F 73.0 °F 67% 30.00 in 10.0 mi East 9.2 mph - N/A   Clear
7:53 PM 81.0 °F 85.8 °F 73.0 °F 77% 30.01 in 10.0 mi SE 6.9 mph - N/A   Clear
8:53 PM 80.1 °F 83.8 °F 72.0 °F 76% 30.01 in 10.0 mi SSE 6.9 mph - N/A   Clear
9:53 PM 81.0 °F 86.7 °F 75.0 °F 82% 30.02 in 10.0 mi SE 6.9 mph - N/A   Clear
10:53 PM 80.1 °F 85.1 °F 75.0 °F 85% 30.03 in 10.0 mi South 5.8 mph - N/A   Clear
11:53 PM 79.0 °F - 73.0 °F 82% 30.01 in 10.0 mi South 3.5 mph - N/A   Clear